Location: Austin
(30.3000°N, 97.7500°W)
Time: 07:33:56
(UTC-05:00)

IDEFIX/ARIANE 42P - Pass Details

Date: 16 June 2025
Orbit: 781 x 797 km, 98.6° (Epoch: 07 July)

Event Time Altitude Azimuth Distance (km) Brightness Sun altitude
Rises 04:09:02 0° 353° (N) 3,297 6.4 -24.4°
Reaches altitude 10° 04:11:59 10° 336° (NNW) 2,361 5.3 -24.0°
Enters shadow 04:15:30 19° 293° (WNW) 1,801 4.2 -23.5°
